This is the latest recevied weather packets stored in our database for station/object N5ZP. If no packets are shown the sender has not sent any weather packets the latest 1 day(s).
| Time | Temp. | Humidity | Pressure | Rain* | Wind** | Luminosity | Snow |
|---|---|---|---|---|---|---|---|
| 1778078748 | 10.56° C | 90% | 1014 hPa | 1.27 mm | - | 24 W/m² | - |
| 1778078445 | 10.56° C | 90% | 1013.2 hPa | 0 mm | - | 39 W/m² | - |
| 1778077841 | 10.56° C | 89% | 1012.5 hPa | 0 mm | - | 25 W/m² | - |
| 1778076934 | 10.56° C | 88% | 1012.4 hPa | 1.78 mm | - | 21 W/m² | - |
| 1778076632 | 11.11° C | 88% | 1011.4 hPa | 0 mm | - | 43 W/m² | - |
| 1778075723 | 11.11° C | 86% | 1012.3 hPa | 0 mm | - | 43 W/m² | - |
| 1778075419 | 11.11° C | 85% | 1012.5 hPa | 0 mm | - | 26 W/m² | - |
| 1778074812 | 11.11° C | 85% | 1012.4 hPa | 0 mm | - | 13 W/m² | - |
| 1778072994 | 10.56° C | 85% | 1011.2 hPa | 0 mm | - | 40 W/m² | - |
| 1778069666 | 11.11° C | 84% | 1010.6 hPa | 0 mm | - | 9 W/m² | - |
| 1778068154 | 11.67° C | 82% | 1010.5 hPa | 0 mm | - | 1 W/m² | - |
| 1778067851 | 11.67° C | 80% | 1010.5 hPa | 0 mm | - | 1 W/m² | - |
| 1778067550 | 11.67° C | 79% | 1010.2 hPa | 0 mm | - | 0 W/m² | - |
| 1778067247 | 11.67° C | 78% | 1010 hPa | 0 mm | - | 0 W/m² | - |
| 1778066338 | 12.22° C | 78% | 1009.6 hPa | 0 mm | - | 0 W/m² | - |
| 1778066036 | 12.22° C | 77% | 1009.5 hPa | 0 mm | - | 0 W/m² | - |
| 1778065733 | 12.22° C | 78% | 1009.4 hPa | 0 mm | - | 0 W/m² | - |
| 1778065127 | 12.22° C | 78% | 1009.1 hPa | 0 mm | - | 0 W/m² | - |
| 1778064521 | 12.78° C | 77% | 1009.2 hPa | 0 mm | - | 0 W/m² | - |
| 1778062401 | 13.33° C | 77% | 1008.9 hPa | 0 mm | - | 0 W/m² | - |
| 1778062100 | 13.33° C | 77% | 1008.7 hPa | 0 mm | - | 0 W/m² | - |
| 1778061798 | 13.33° C | 77% | 1008.7 hPa | 0 mm | - | 0 W/m² | - |
| 1778061496 | 13.33° C | 77% | 1008.4 hPa | 0 mm | - | 0 W/m² | - |
| 1778060588 | 13.33° C | 77% | 1008.1 hPa | 0 mm | - | 0 W/m² | - |
| 1778059378 | 13.89° C | 76% | 1008.3 hPa | 0 mm | - | 0 W/m² | - |
* Rain latest hour (hover to see other rain measurements)
** Current wind speed in m/s (hover to see current wind gust speed)